[[{"header":{"parameterUnit":"m.s-1","parameterCategory":1,"la1":30.2991,"la2":30.254,"lo1":-89.0895,"lo2":-89.0444,"dy":0.0017,"dx":0.0017,"nx":28,"ny":28,"refTime":"2023-10-15T09:00:00:Z","depth":0,"parameterNumber":2,"parameterNumberName":"U-component_of_WINDS"},"data":[0,0,0,0,0,0,0,0,0,0,0,0,0,0,0,0,0,0,0,0,0,0,0,0,0,0,0,0,0,0,0,0,0,0,0,0,0,0,0,0,0,0,0,0,0,0,0,0,0,0,0,0,0,0,0,0,0,0,1.6601,1.66,0,1.6536,1.6535,1.6534,1.6464,1.6463,1.6462,1.6461,1.6393,1.6392,1.6391,0,0,0,0,0,0,0,0,0,0,0,0,0,1.6664,1.6663,1.6601,1.66,1.6599,1.6536,1.6535,1.6534,1.6464,1.6463,1.6462,1.6461,1.6393,1.6392,1.6391,0,0,0,0,0,0,0,0,0,0,0,0,0,1.6621,1.6663,1.6601,1.6557,1.6552,1.6536,1.6535,1.6534,1.6464,1.6463,1.6461,1.646,1.6393,1.6392,1.6391,1.6413,0,0,1.6387,1.6386,0,0,0,0,0,0,0,0,1.6624,1.6619,1.6564,1.656,1.6555,1.6507,1.6532,1.6493,1.6465,1.6498,1.6461,1.6459,1.6432,1.6427,1.6418,1.6409,1.6407,1.6387,1.6386,1.6385,1.6385,0,0,0,0,0,0,0,1.6627,1.6622,1.6575,1.6563,1.6558,1.654,1.6532,1.6524,1.6474,1.6495,1.6489,1.6483,1.6429,1.642,1.6416,1.6406,1.6387,1.6385,1.6385,1.6384,1.6413,1.6415,0,0,0,0,0,0,1.6637,1.6624,1.6577,1.6573,1.6586,1.654,1.6531,1.6523,1.6474,1.6465,1.6484,1.648,1.6423,1.6418,1.6413,1.6436,1.6385,1.6384,1.6383,1.6412,1.6414,1.6415,0,0,0,0,0,0,1.6638,1.6633,1.658,1.6597,1.6589,1.6541,1.6532,1.6523,1.6514,1.6466,1.6456,1.6484,1.6421,1.6415,1.6414,1.6433,1.6383,1.6382,1.641,1.6412,1.6414,1.6483,0,0,0,0,0,0,1.664,1.6634,1.6642,1.6598,1.6589,1.6582,1.6533,1.6523,1.6512,1.6505,1.6463,1.6455,1.642,1.6416,1.6413,1.643,1.6381,1.6408,1.6411,1.6414,1.6478,1.6487,1.6494,0,0,0,0,0,1.6643,1.6663,1.6643,1.6637,1.6597,1.6583,1.6577,1.6537,1.6514,1.6521,1.6491,1.6456,1.6432,1.6417,1.6412,1.643,1.6406,1.641,1.6413,1.6475,1.6485,1.6494,0,0,0,0,0,0,1.6709,1.6656,1.6633,1.664,1.6617,1.6571,1.6579,1.6549,1.6531,1.6526,1.6476,1.6467,1.6472,1.6451,1.6435,1.6449,1.6414,1.6417,1.6463,1.6472,1.648,1.6485,1.638,0,0,0,0,0,1.6725,1.6718,1.6672,1.6682,1.6672,1.6628,1.662,1.6591,1.6565,1.6554,1.6523,1.6499,1.6486,1.6478,1.6463,1.6476,1.6466,1.6486,1.6494,1.65,1.6503,1.6509,1.6518,1.6427,1.6427,1.6427,0,0,1.6756,1.6727,1.6725,1.6695,1.6673,1.6667,1.662,1.6615,1.661,1.6553,1.655,1.6527,1.6496,1.6503,1.6504,1.6485,1.6526,1.6505,1.6511,1.6509,1.6514,1.6522,1.653,1.6429,1.6429,1.6428,0,0,1.681,1.6787,1.6794,1.6774,1.6743,1.6714,1.6716,1.6675,1.6658,1.6655,1.6613,1.6606,1.6584,1.6564,1.6551,1.6601,1.6569,1.6598,1.6639,1.6646,1.6653,1.6659,1.6677,1.6684,1.6601,1.6601,1.6601,0,1.6853,1.6842,1.6801,1.6799,1.6787,1.6737,1.6744,1.6726,1.6692,1.6685,1.6665,1.6638,1.6613,1.6615,1.6627,1.6618,1.6619,1.6602,1.6655,1.6661,1.6666,1.6683,1.669,1.6605,1.6604,1.6604,1.6604,0,1.6897,1.6891,1.69,1.6869,1.6858,1.686,1.6819,1.6814,1.6787,1.676,1.6758,1.6728,1.6706,1.6705,1.6678,1.6703,1.6692,1.6665,1.6628,1.6679,1.6694,1.67,1.661,1.6609,1.6608,1.6607,0,0,1.6989,1.6937,1.6941,1.6927,1.689,1.6884,1.6885,1.6865,1.6861,1.684,1.6839,1.6824,1.6798,1.6784,1.6754,1.676,1.6803,1.6732,1.673,1.6746,1.6829,1.685,1.6858,1.6782,1.6783,1.6784,1.6832,0,1.7036,1.7035,1.6998,1.7007,1.7001,1.6955,1.6956,1.6933,1.6909,1.69,1.6873,1.6863,1.6831,1.6822,1.6826,1.6797,1.6819,1.6793,1.6781,1.6781,1.6789,1.6866,1.6887,1.6934,1.6838,1.6838,1.6839,0,1.7091,1.7074,1.7083,1.7047,1.7043,1.7045,1.7025,1.7017,1.6991,1.6973,1.6959,1.6926,1.6925,1.6892,1.6889,1.6873,1.6866,1.6851,1.6852,1.6849,1.6812,1.6864,1.6948,1.6955,1.6848,1.6847,1.6847,0,1.7157,1.7137,1.714,1.7129,1.7088,1.709,1.7073,1.7046,1.7037,1.7019,1.7013,1.6996,1.6986,1.6974,1.6937,1.6917,1.6939,1.6903,1.6924,1.6925,1.693,1.693,1.7014,1.6927,1.6927,1.6927,1.6927,0,1.7213,1.722,1.7169,1.7171,1.7178,1.7136,1.7144,1.7123,1.7099,1.7096,1.7055,1.7053,1.7006,1.6998,1.697,1.6973,1.6969,1.6954,1.6947,1.6958,1.696,1.6952,1.6947,1.6929,1.6928,1.6928,1.6928,0,1.7288,1.7254,1.7254,1.7216,1.7206,1.7213,1.718,1.718,1.7155,1.7151,1.7148,1.7108,1.7097,1.7061,1.704,1.7022,1.7033,1.7019,1.7042,1.7037,1.706,1.7059,1.7141,1.715,1.7059,1.706,1.706,0,1.7326,1.733,1.7293,1.7289,1.7274,1.7267,1.7258,1.7218,1.7211,1.7183,1.7187,1.7174,1.7161,1.7146,1.7115,1.71,1.7084,1.7115,1.7082,1.7093,1.7085,1.7085,1.7085,1.7121,1.7122,1.7123,1.7124,0,1.7397,1.738,1.7369,1.7354,1.7345,1.733,1.7313,1.7312,1.7267,1.7261,1.7251,1.7241,1.7222,1.7209,1.719,1.7171,1.7141,1.7135,1.7139,1.715,1.7164,1.7157,1.7061,1.7133,1.7132,1.7131,1.7131,1.7131,1.7453,1.7456,1.7431,1.7421,1.7404,1.739,1.7389,1.7364,1.7355,1.7336,1.7314,1.7306,1.7282,1.7253,1.7238,1.7231,1.7214,1.722,1.7221,1.7223,1.7229,1.7166,1.7227,1.7227,1.7227,1.7227,1.7226,0,1.7522,1.7504,1.7496,1.7474,1.7467,1.744,1.742,1.7416,1.741,1.739,1.7379,1.7368,1.7356,1.7325,1.731,1.7311,1.7297,1.7309,1.7308,1.7304,1.7245,1.7243,1.7321,1.7321,1.7321,1.7321,1.7321,1.7321,1.7557,1.756,1.7541,1.7536,1.7518,1.7511,1.7502,1.7489,1.7474,1.7463,1.7454,1.7434,1.741,1.7393,1.7382,1.7373,1.7369,1.7386,1.7372,1.7317,1.7308,1.73,1.7297,1.7385,1.7386,1.7432,1.7433,1.7433]},{"header":{"parameterUnit":"m.s-1","parameterCategory":1,"la1":30.2991,"la2":30.254,"lo1":-89.0895,"lo2":-89.0444,"dy":0.0017,"dx":0.0017,"nx":28,"ny":28,"refTime":"2023-10-15T09:00:00:Z","depth":0,"parameterNumber":3,"parameterNumberName":"V-component_of_WINDS"},"data":[0,0,0,0,0,0,0,0,0,0,0,0,0,0,0,0,0,0,0,0,0,0,0,0,0,0,0,0,0,0,0,0,0,0,0,0,0,0,0,0,0,0,0,0,0,0,0,0,0,0,0,0,0,0,0,0,0,0,-6.2537,-6.2538,0,-6.2698,-6.27,-6.2702,-6.2632,-6.2628,-6.2624,-6.2621,-6.278,-6.2788,-6.2795,0,0,0,0,0,0,0,0,0,0,0,0,0,-6.2162,-6.2169,-6.2537,-6.2539,-6.2541,-6.2698,-6.27,-6.2702,-6.2633,-6.2628,-6.2623,-6.2619,-6.2777,-6.2787,-6.2796,0,0,0,0,0,0,0,0,0,0,0,0,0,-6.2324,-6.2171,-6.2536,-6.2525,-6.2526,-6.2698,-6.27,-6.2703,-6.2634,-6.2628,-6.2622,-6.2617,-6.2774,-6.2786,-6.2797,-6.2988,0,0,-6.2834,-6.2839,0,0,0,0,0,0,0,0,-6.2315,-6.2338,-6.2525,-6.2526,-6.2527,-6.2639,-6.2626,-6.2798,-6.2635,-6.2593,-6.2621,-6.2614,-6.2737,-6.2752,-6.2795,-6.2995,-6.3002,-6.2835,-6.2842,-6.2847,-6.285,0,0,0,0,0,0,0,-6.2304,-6.233,-6.26,-6.2527,-6.2529,-6.251,-6.2527,-6.2659,-6.2696,-6.2596,-6.2591,-6.2612,-6.2737,-6.2784,-6.2798,-6.3005,-6.2834,-6.2845,-6.2852,-6.2857,-6.3369,-6.3375,0,0,0,0,0,0,-6.2293,-6.2321,-6.2595,-6.2605,-6.2405,-6.2522,-6.254,-6.2609,-6.2694,-6.2702,-6.2616,-6.2608,-6.2766,-6.2784,-6.2804,-6.3032,-6.2847,-6.2858,-6.2865,-6.3362,-6.337,-6.3377,0,0,0,0,0,0,-6.2285,-6.2318,-6.2589,-6.2462,-6.2495,-6.2534,-6.2612,-6.2615,-6.2662,-6.271,-6.2715,-6.2658,-6.2763,-6.2787,-6.2943,-6.3036,-6.2863,-6.2874,-6.3354,-6.3365,-6.3374,-6.3491,0,0,0,0,0,0,-6.2275,-6.2316,-6.239,-6.2465,-6.2502,-6.2728,-6.2618,-6.2623,-6.2683,-6.2674,-6.275,-6.2757,-6.276,-6.2926,-6.2955,-6.305,-6.2883,-6.3346,-6.3359,-6.337,-6.3479,-6.3503,-6.3524,0,0,0,0,0,-6.2262,-6.2415,-6.2394,-6.2428,-6.2596,-6.2733,-6.2755,-6.2756,-6.2691,-6.2765,-6.2796,-6.2755,-6.3022,-6.2942,-6.2974,-6.3074,-6.334,-6.3355,-6.337,-6.3468,-6.3498,-6.3524,0,0,0,0,0,0,-6.2349,-6.2425,-6.2402,-6.2585,-6.2654,-6.2721,-6.2815,-6.2788,-6.2875,-6.2862,-6.2858,-6.2876,-6.3037,-6.3071,-6.2981,-6.3263,-6.3171,-6.3193,-6.3235,-6.3264,-6.3286,-6.3274,-6.2893,0,0,0,0,0,-6.239,-6.2497,-6.2556,-6.2712,-6.2748,-6.2776,-6.2835,-6.2831,-6.2901,-6.2929,-6.297,-6.3038,-6.3137,-6.3202,-6.3296,-6.3483,-6.3498,-6.3567,-6.359,-6.3609,-6.3627,-6.3728,-6.3759,-6.3425,-6.3425,-6.3425,0,0,-6.2475,-6.2529,-6.2597,-6.2731,-6.2783,-6.2892,-6.28,-6.2919,-6.3,-6.2946,-6.3096,-6.313,-6.3205,-6.3377,-6.3455,-6.341,-6.3723,-6.3627,-6.3642,-6.365,-6.3746,-6.3778,-6.3806,-6.3435,-6.3433,-6.3432,0,0,-6.2685,-6.2738,-6.2873,-6.2928,-6.3009,-6.3027,-6.3059,-6.3132,-6.3152,-6.3304,-6.3266,-6.336,-6.3531,-6.3586,-6.3636,-6.3868,-6.3833,-6.3898,-6.4017,-6.4115,-6.4142,-6.4165,-6.4247,-6.4276,-6.3916,-6.3917,-6.3917,0,-6.2779,-6.2944,-6.2945,-6.3068,-6.3128,-6.3086,-6.3222,-6.3274,-6.3381,-6.3422,-6.3371,-6.3585,-6.3632,-6.3817,-6.3874,-6.3916,-6.3952,-6.3889,-6.4138,-6.4162,-6.4183,-6.4261,-6.4292,-6.3924,-6.3923,-6.3922,-6.3922,0,-6.3056,-6.3171,-6.327,-6.3377,-6.3447,-6.3576,-6.3595,-6.3666,-6.3655,-6.3677,-6.3831,-6.3887,-6.3991,-6.4035,-6.4025,-6.4218,-6.4188,-6.4138,-6.4045,-6.4223,-6.4296,-6.4326,-6.3935,-6.3932,-6.393,-6.3928,0,0,-6.3326,-6.3432,-6.3468,-6.3516,-6.3603,-6.3691,-6.3817,-6.3921,-6.3981,-6.4056,-6.4161,-6.4307,-6.4261,-6.4318,-6.4314,-6.44,-6.458,-6.4339,-6.4341,-6.4382,-6.4795,-6.4832,-6.4867,-6.4557,-6.4563,-6.4567,-6.4789,0,-6.3542,-6.3766,-6.377,-6.3974,-6.408,-6.4042,-6.4151,-6.4215,-6.424,-6.4331,-6.4356,-6.446,-6.4392,-6.4426,-6.451,-6.454,-6.4662,-6.4524,-6.4653,-6.4657,-6.4635,-6.4905,-6.4945,-6.5151,-6.4817,-6.4822,-6.4826,0,-6.3825,-6.3911,-6.4127,-6.4199,-6.4243,-6.4342,-6.4437,-6.4525,-6.4596,-6.4608,-6.4673,-6.4655,-6.4782,-6.4686,-6.4859,-6.4765,-6.4818,-6.484,-6.4848,-6.486,-6.4752,-6.4924,-6.5217,-6.5248,-6.4871,-6.4867,-6.4864,0,-6.4,-6.4169,-6.432,-6.4362,-6.445,-6.452,-6.4559,-6.4625,-6.4687,-6.477,-6.481,-6.4906,-6.4958,-6.5031,-6.504,-6.4969,-6.5214,-6.5119,-6.5225,-6.5226,-6.5278,-6.5275,-6.5584,-6.5313,-6.5313,-6.5312,-6.5312,0,-6.4241,-6.4374,-6.44,-6.4493,-6.464,-6.4643,-6.4788,-6.4821,-6.488,-6.4977,-6.4949,-6.504,-6.5046,-6.5139,-6.5146,-6.5288,-6.5312,-6.5323,-6.5324,-6.5326,-6.5325,-6.536,-6.5346,-6.532,-6.5319,-6.5317,-6.5316,0,-6.4461,-6.4484,-6.4646,-6.4716,-6.4736,-6.4842,-6.4901,-6.4988,-6.501,-6.5133,-6.5162,-6.5195,-6.5304,-6.5319,-6.5445,-6.545,-6.562,-6.5606,-6.5597,-6.5595,-6.5701,-6.5691,-6.6043,-6.6089,-6.5789,-6.5792,-6.5794,0,-6.4613,-6.4715,-6.4796,-6.4861,-6.4904,-6.5007,-6.5071,-6.5077,-6.5145,-6.5234,-6.531,-6.5416,-6.5501,-6.5675,-6.5709,-6.5805,-6.5792,-6.5909,-6.5806,-6.5806,-6.5794,-6.5787,-6.5797,-6.5929,-6.5932,-6.5935,-6.5937,0,-6.4881,-6.4887,-6.4982,-6.5081,-6.5158,-6.5236,-6.5308,-6.5362,-6.5377,-6.5454,-6.5565,-6.5631,-6.5761,-6.5866,-6.5961,-6.5999,-6.5971,-6.5969,-6.5999,-6.6002,-6.5993,-6.5999,-6.5651,-6.5961,-6.5959,-6.5957,-6.5956,-6.5955,-6.5071,-6.516,-6.5232,-6.5337,-6.5393,-6.5462,-6.5548,-6.5581,-6.5675,-6.5783,-6.578,-6.5902,-6.5969,-6.6095,-6.614,-6.6234,-6.6195,-6.6238,-6.6249,-6.626,-6.627,-6.5979,-6.6251,-6.625,-6.625,-6.6249,-6.6249,0,-6.5337,-6.5382,-6.5479,-6.5583,-6.5666,-6.5634,-6.5713,-6.5784,-6.5893,-6.5959,-6.6044,-6.6172,-6.6273,-6.6316,-6.6415,-6.6482,-6.6472,-6.6508,-6.6503,-6.6512,-6.6299,-6.6263,-6.6515,-6.6515,-6.6515,-6.6515,-6.6515,-6.6515,-6.5485,-6.5634,-6.5649,-6.5824,-6.5867,-6.5988,-6.6036,-6.6099,-6.6152,-6.6296,-6.6382,-6.6409,-6.6466,-6.6569,-6.666,-6.667,-6.6707,-6.675,-6.6754,-6.6554,-6.6527,-6.6501,-6.6468,-6.6758,-6.6758,-6.6958,-6.696,-6.6962]}]]